Location: Aalsum
(53.3404°N, 6.0062°E)
Time: 04:10:03
(UTC+00:00)

Cosmos 2278 Rocket - Pass Details

Date: 28 January 2023
Orbit: 841 x 845 km, 71.0° (Epoch: 24 March)

Event Time Altitude Azimuth Distance (km) Brightness Sun altitude
Rises 17:52:33 0° 319° (NW) 3,417 5.8 -15.0°
Reaches altitude 10° 17:56:05 10° 341° (NNW) 2,480 4.7 -15.5°
Maximum altitude 17:59:28 16° 18° (NNE) 2,094 4.0 -16.0°
Enters shadow 18:01:02 14° 37° (NE) 2,180 3.9 -16.2°
